Weather History for Wright-Patt AFB, OH

Change the Weather History Date:

Thursday, June 27, 2013

  Actual Average Record
Temperature  
Mean Temperature 77 °F -  
Max Temperature 86 °F 81 °F 93 °F (2005)
Min Temperature 68 °F 60 °F 50 °F (2004)
Cooling Degree Days 12    
Growing Degree Days 27 (Base 50)    
Moisture  
Dew Point 68 °F    
Average Humidity 86    
Maximum Humidity 100    
Minimum Humidity 48    
Precipitation  
Precipitation 0.12 in - - ()
Sea Level Pressure  
Sea Level Pressure 29.76 in    
Wind  
Wind Speed 7 mph (SW)    
Max Wind Speed 16 mph    
Max Gust Speed 23 mph    
Visibility 8 miles    
Events Rain , Thunderstorm    
Averages and records for this station are not official NWS values.
T = Trace of Precipitation, MM = Missing Value Source: NWS Daily Summary

Daily Weather History Graph

Daily Weather History Graph

Search for Another Location

Airport:

Trip Planner

Search our weather history database for the weather conditions in past years. The results will help you decide how hot, cold, wet, or windy it might be!

Date:

Astronomy

Jun. 27, 2013 Rise Set
Actual Time 6:09 AM EDT 9:08 PM EDT
Civil Twilight 5:37 AM EDT 9:41 PM EDT
Nautical Twilight 4:55 AM EDT 10:22 PM EDT
Astronomical Twilight 4:07 AM EDT 11:10 PM EDT
Moon No Moon Rise 11:09 AM EDT (6/27)
Length of Visible Light 16h 03m
Length of Day
14h 58m
Waning Gibbous, 76% of the Moon is Illuminated
Jun 27
Waning Gibbous
Jun 30
Last Quarter
Jul 8
New
Jul 15
First Quarter
Jul 22
Full

Hourly Weather History & Observations

Time (EDT) Temp. Heat Index Dew Point Humidity Pressure Visibility Wind Dir Wind Speed Gust Speed Precip Events Conditions
12:58 AM 70.5 °F - 68.2 °F 92% 29.79 in 10.0 mi SSE 6.9 mph - N/A   Mostly Cloudy
1:37 AM 69.8 °F - 68.0 °F 94% 29.78 in 10.0 mi SE 4.6 mph - N/A Rain Light Rain
1:58 AM 69.8 °F - 68.0 °F 94% 29.77 in 10.0 mi South 5.8 mph - 0.00 in   Overcast
2:08 AM 69.8 °F - 68.0 °F 94% 29.78 in 10.0 mi South 5.8 mph - N/A   Overcast
2:23 AM 69.8 °F - 66.2 °F 88% 29.79 in 10.0 mi South 9.2 mph - N/A Rain Light Rain
2:58 AM 68.7 °F - 67.1 °F 95% 29.77 in 10.0 mi South 8.1 mph - 0.01 in   Overcast
3:08 AM 68.0 °F - 66.2 °F 94% 29.78 in 6.0 mi South 5.8 mph - N/A Rain Light Rain
3:15 AM 68.0 °F - 68.0 °F 100% 29.78 in 10.0 mi South 6.9 mph - N/A Rain Light Rain
3:29 AM 68.0 °F - 66.2 °F 94% 29.78 in 10.0 mi South 6.9 mph - N/A Rain Light Rain
3:39 AM 68.0 °F - 66.2 °F 94% 29.77 in 8.0 mi SSE 4.6 mph - N/A Rain Light Rain
3:50 AM 68.0 °F - 66.2 °F 94% 29.77 in 10.0 mi South 3.5 mph - N/A   Overcast
3:58 AM 68.4 °F - 66.9 °F 95% 29.76 in 10.0 mi South 4.6 mph - 0.01 in Rain Light Rain
3:59 AM 68.0 °F - 66.2 °F 94% 29.77 in 10.0 mi South 4.6 mph - N/A Rain Light Rain
4:09 AM 68.0 °F - 66.2 °F 94% 29.77 in 5.0 mi SSW 3.5 mph - N/A Rain Rain
4:19 AM 68.0 °F - 68.0 °F 100% 29.77 in 5.0 mi SSW 4.6 mph - N/A Rain Rain
4:29 AM 68.0 °F - 68.0 °F 100% 29.77 in 6.0 mi South 4.6 mph - N/A Rain Light Rain
4:39 AM 68.0 °F - 68.0 °F 100% 29.77 in 8.0 mi South 4.6 mph - N/A Rain Light Rain
4:43 AM 68.0 °F - 68.0 °F 100% 29.77 in 10.0 mi SSW 5.8 mph - N/A   Overcast
4:58 AM 68.5 °F - 67.6 °F 97% 29.77 in 6.0 mi SSW 5.8 mph - 0.10 in   Overcast
5:38 AM 68.0 °F - 68.0 °F 100% 29.76 in 10.0 mi South 6.9 mph - N/A   Overcast
5:58 AM 69.1 °F - 68.2 °F 97% 29.76 in 9.0 mi SSW 6.9 mph - N/A   Overcast
6:18 AM 69.8 °F - 68.0 °F 94% 29.77 in 7.0 mi SW 6.9 mph - N/A   Overcast
6:38 AM 69.8 °F - 68.0 °F 94% 29.77 in 3.0 mi SW 8.1 mph - N/A   Overcast
6:48 AM 68.0 °F - 68.0 °F 100% 29.77 in 5.0 mi SW 8.1 mph - N/A   Overcast
6:58 AM 68.9 °F - 68.0 °F 97% 29.77 in 3.0 mi SW 6.9 mph - N/A   Overcast
7:18 AM 68.0 °F - 68.0 °F 100% 29.78 in 4.0 mi SW 10.4 mph - N/A   Overcast
7:41 AM 68.0 °F - 68.0 °F 100% 29.78 in 5.0 mi WSW 8.1 mph - N/A   Light Drizzle
7:58 AM 68.9 °F - 68.0 °F 97% 29.78 in 3.0 mi WSW 8.1 mph - 0.00 in   Light Drizzle
8:11 AM 69.8 °F - 68.0 °F 94% 29.78 in 5.0 mi SW 8.1 mph - N/A   Light Drizzle
8:21 AM 69.8 °F - 68.0 °F 94% 29.78 in 3.0 mi SW 6.9 mph - N/A   Overcast
8:41 AM 69.8 °F - 69.8 °F 100% 29.78 in 3.0 mi WSW 5.8 mph - N/A   Overcast
8:58 AM 69.6 °F - 69.4 °F 99% 29.77 in 3.0 mi SW 5.8 mph - 0.00 in   Overcast
9:51 AM 71.6 °F - 71.6 °F 100% 29.77 in 3.0 mi WSW 6.9 mph - N/A   Overcast
9:58 AM 71.8 °F - 70.5 °F 96% 29.77 in 3.0 mi WSW 9.2 mph - N/A   Overcast
10:08 AM 71.6 °F - 69.8 °F 94% 29.77 in 4.0 mi West 8.1 mph - N/A   Overcast
10:18 AM 71.6 °F - 69.8 °F 94% 29.77 in 4.0 mi WSW 5.8 mph - N/A   Overcast
10:48 AM 73.4 °F - 68.0 °F 83% 29.77 in 5.0 mi West 6.9 mph - N/A   Mostly Cloudy
10:58 AM 73.0 °F - 68.0 °F 84% 29.77 in 5.0 mi WSW 6.9 mph - N/A   Mostly Cloudy
11:08 AM 73.4 °F - 68.0 °F 83% 29.77 in 5.0 mi WSW 6.9 mph - N/A   Overcast
11:28 AM 73.4 °F - 68.0 °F 83% 29.77 in 5.0 mi West 4.6 mph - N/A   Overcast
11:38 AM 75.2 °F - 68.0 °F 78% 29.77 in 5.0 mi West 4.6 mph - N/A   Mostly Cloudy
11:58 AM 76.5 °F - 68.0 °F 75% 29.76 in 10.0 mi Variable 4.6 mph - N/A   Mostly Cloudy
12:08 PM 77.0 °F - 68.0 °F 74% 29.77 in 10.0 mi Variable 5.8 mph - N/A   Scattered Clouds
12:58 PM 81.3 °F 83.8 °F 67.1 °F 62% 29.76 in 10.0 mi West 8.1 mph - N/A   Scattered Clouds
1:58 PM 80.2 °F 82.5 °F 66.6 °F 63% 29.75 in 10.0 mi Variable 6.9 mph - N/A   Scattered Clouds
2:58 PM 84.9 °F 87.1 °F 66.2 °F 53% 29.75 in 10.0 mi West 11.5 mph 17.3 mph N/A   Partly Cloudy
3:58 PM 85.6 °F 87.4 °F 65.3 °F 50% 29.74 in 10.0 mi WNW 12.7 mph - N/A   Partly Cloudy
4:58 PM 86.0 °F 87.3 °F 64.4 °F 48% 29.73 in 10.0 mi West 12.7 mph - N/A   Scattered Clouds
5:58 PM 86.2 °F 87.9 °F 64.9 °F 49% 29.72 in 10.0 mi West 15.0 mph - N/A   Partly Cloudy
6:58 PM 84.9 °F 86.3 °F 64.6 °F 50% 29.72 in 10.0 mi West 13.8 mph 23.0 mph N/A   Scattered Clouds
7:58 PM 82.6 °F 84.3 °F 65.1 °F 55% 29.73 in 10.0 mi West 16.1 mph - N/A   Scattered Clouds
8:58 PM 80.1 °F 82.0 °F 65.3 °F 61% 29.73 in 10.0 mi West 8.1 mph - N/A   Mostly Cloudy
9:58 PM 76.5 °F - 66.7 °F 72% 29.70 in 10.0 mi SW 2.3 mph - N/A   Mostly Cloudy
10:58 PM 74.3 °F - 67.5 °F 79% 29.70 in 10.0 mi SSW 4.6 mph - N/A   Mostly Cloudy
11:12 PM 73.4 °F - 68.0 °F 83% 29.70 in 10.0 mi SW 5.8 mph - N/A Thunderstorm Mostly Cloudy
11:34 PM 75.2 °F - 68.0 °F 78% 29.70 in 10.0 mi WSW 4.6 mph - N/A   Mostly Cloudy
11:58 PM 76.5 °F - 66.7 °F 72% 29.69 in 10.0 mi Variable 5.8 mph - N/A   Mostly Cloudy